Regional Weather Roundup
Issued by NWS

Home | Current Version | Previous Version | Graphics & Text | Print | Product List | Glossary On
Versions: 1 2 3 4 5 6 7 8 9 10 11 12 13 14 15 16 17 18 19 20 21 22 23 24 25 26 27 28 29 30 31 32 33 34 35 36 37 38 39 40 41 42 43 44 45 46 47 48 49 50
038
ASUS44 KLIX 280705
RWRLA
LOUISIANA WEATHER ROUNDUP
NATIONAL WEATHER SERVICE NEW ORLEANS LA
100 AM CST FRI NOV 28 2014

NOTE: "FAIR" INDICATES FEW OR NO CLOUDS BELOW 12,000 FEET WITH NO
      SIGNIFICANT WEATHER AND/OR OBSTRUCTIONS TO VISIBILITY.
      SKY/WX - SKY CONDITION AND SIGNIFICANT WEATHER.
      TMP - AIR TEMPERATURE.    DP   - DEWPOINT TEMPERATURE.
      RH  - RELATIVE HUMIDITY.  PRES - PRESSURE.
      HX  - HEAT INDEX.         WCI  - WIND CHILL INDEX.

*  THESE STATIONS ARE NOT NWS OR FAA STATIONS AND ARE NOT UNDER
   NWS QUALITY CONTROL.

LAZ040-048-061>063-065-066-069-280800-
SOUTHEAST LOUISIANA

CITY           SKY/WX    TMP DP  RH WIND       PRES   REMARKS
N.O. AUDUBON     N/A     47  35  63 MISG        N/A
N.O. INTL ARPT CLEAR     48  35  60 NE8       30.42F
N.O. LAKEFRONT CLEAR     50  35  56 NE18      30.42F
N.O. DOWNTOWN* FAIR      48  30  49 CALM      30.42F
SLIDELL        CLEAR     33  30  88 N6        30.43F WCI  28
BATON ROUGE    CLEAR     38  32  79 NE3       30.43F
BOOTHVILLE     CLEAR     52  40  63 NE8       30.41F
BELLE CHASSE   CLEAR     45  33  63 NE6       30.41F
BOGALUSA*        N/A     35  31  87 N5        30.46S WCI  30
NEW ROADS*     FAIR      40  32  73 NE3       30.44S
GONZALES*      FAIR      39  35  84 CALM      30.43S
HAMMOND*       CLEAR     41  32  70 NE3       30.44F
HOUMA*         CLEAR     40  36  86 CALM      30.42S
PORT FOURCHON* SUNNY     52  41  66 NE8       30.43F

$$

LAZ041-044-053-054-280800-
SOUTHWEST LOUISIANA

CITY           SKY/WX    TMP DP  RH WIND       PRES   REMARKS
LAKE CHARLES   CLEAR     43  35  73 E6        30.41F
LAFAYETTE      CLEAR     41  34  76 NE3       30.42F
PATTERSON      CLEAR     39  36  87 CALM      30.44S
SALT POINT       N/A     48  37  65 CALM      30.40F
NEW IBERIA     CLEAR     43  34  70 E3        30.43F
CHENAULT AIRPK CLEAR     41  36  81 E5        30.41F

$$

LAZ027-028-280800-
CENTRAL LOUISIANA

CITY           SKY/WX    TMP DP  RH WIND       PRES   REMARKS
FORT POLK      CLEAR     40  34  78 E5        30.40F
ALEXANDRIA INT CLEAR     39  33  79 CALM      30.42S
ALEXANDRIA     CLEAR     34  31  88 CALM      30.43F

$$

LAZ001-002-280800-
NORTHWEST LOUISIANA

CITY           SKY/WX    TMP DP  RH WIND       PRES   REMARKS
SHREVEPORT     CLEAR     39  32  76 SE6       30.40F WCI  35
BARKSDALE AFB  CLEAR     37  31  78 SE5       30.42F WCI  34
DTN SHREVEPORT CLEAR     39  31  72 SE5       30.42F

$$

LAZ014-016-280800-
NORTHEAST LOUISIANA

CITY           SKY/WX    TMP DP  RH WIND       PRES   REMARKS
MONROE         CLEAR     32  30  92 CALM      30.45F
TALLULAH       CLEAR     28  26  92 CALM      30.45F FOG

$$




USA.gov is the U.S. government's official web portal to all federal, state and local government web resources and services.